Simultaneous Nadir Overpasses (SNOs) Predictions

Prediction of SNOs between AQUA and NPP Satellite Orbit:

Table of predicted SNOs for the next 14.0 days since TLE Epoch: 10/11/2025
Index Date (AQUA) Time (AQUA) Lat,Lon (AQUA) SZA (AQUA ) Date (NPP) Time (NPP) Lat,Lon (NPP) SZA (NPP ) Distance(km) Time Diff (sec)
1 10/11/2025 09:39:09 81.25, -28.35 92.76 10/11/2025 09:38:35 81.26, -28.26 92.78 1.74 34
2 10/11/2025 10:28:27 -81.25, 139.32 87.23 10/11/2025 10:29:20 -81.25, 139.22 87.24 1.96 53
3 10/13/2025 19:09:30 81.24,-170.90 93.63 10/13/2025 19:09:33 81.25,-170.82 93.62 1.69 3
4 10/16/2025 03:50:33 -81.25,-121.05 85.54 10/16/2025 03:49:47 -81.25,-120.94 85.53 1.93 46
5 10/16/2025 04:39:50 81.24, 46.55 94.48 10/16/2025 04:40:31 81.25, 46.58 94.46 1.16 41
6 10/18/2025 13:20:52 -81.25, 96.43 84.70 10/18/2025 13:20:45 -81.25, 96.41 84.69 0.93 7
7 10/20/2025 22:01:51 81.26, 146.55 96.09 10/20/2025 22:00:57 81.25, 146.62 96.11 1.59 54
8 10/20/2025 22:51:10 -81.25, -46.09 83.87 10/20/2025 22:51:42 -81.25, -45.90 83.91 3.15 32
9 10/23/2025 07:32:07 81.26, 4.01 96.91 10/23/2025 07:31:54 81.25, 3.88 96.94 2.44 13



Historial Predications of SNOs between AQUA and NPP
